#timestamp,LO_Frequency,Hit,StdDev 
1593622815.2,286047002.1,N
1593622835.1,286047000.0,N
1593622836.0,286047000.0,N
1593622855.8,286046998.1,N
1593622875.6,286047000.1,N
1593622895.5,286047002.6,N
1593622915.3,286047000.6,N
1593622935.2,286047001.2,N
1593622955.9,286047000.7,N
1593622975.7,286046998.4,N
1593622995.6,286047002.1,N
1593623015.4,286047001.0,N
1593623035.3,286046998.8,N
1593623055.1,286046997.4,N
1593623056.0,286046997.4,N
1593623075.8,286046996.6,N
1593623095.7,286046997.9,N
1593623115.5,286046997.9,N
1593623135.4,286046997.7,N
1593623155.2,286046996.6,N
1593623175.0,286046998.8,N
1593623175.9,286046998.8,N
1593623195.8,286047000.5,N
1593623215.6,286047000.3,N
1593623235.4,286047001.9,N
1593623255.3,286046999.7,N
1593623275.1,286046999.8,N
1593623295.9,286047002.8,N
1593623315.7,286047002.6,N
1593623335.5,286047002.3,N
1593623355.4,286047000.2,N
1593623375.2,286047001.0,N
1593623395.0,286047000.3,N
1593623395.9,286047000.3,N
1593623415.8,286047002.4,N
1593623435.6,286046998.2,N
1593623455.5,286046998.6,N
1593623475.3,286046998.8,N
1593623495.1,286046999.6,N
1593623515.9,286046999.4,N
1593623535.7,286046999.1,N
1593623555.6,286046999.2,N
1593623575.4,286046996.8,N
1593623595.2,286046997.7,N
1593623615.1,286046997.6,N
1593623616.0,286046997.6,N
1593623635.8,286046997.6,N
1593623655.6,286046995.2,N
1593623675.5,286046996.1,N
1593623695.3,286046995.8,N
1593623715.2,286046996.7,N
1593623735.9,286046999.1,N
1593623755.7,286046998.2,N
1593623775.6,286046999.3,N
1593623795.4,286047000.4,N
1593623815.3,286046999.0,N
1593623835.1,286046999.2,N
1593623836.0,286046999.2,N
1593623855.8,286046997.2,N
1593623875.7,286046997.6,N
1593623895.5,286046997.6,N
1593623915.3,286046996.9,N
1593623935.2,286046997.0,N
1593623955.0,286046999.2,N
1593623955.9,286046999.2,N
1593623975.8,286046998.5,N
1593623995.6,286047000.6,N
1593624015.5,286046998.1,N
1593624035.3,286047001.0,N
1593624055.1,286047000.9,N
1593624075.9,286046998.5,N
1593624095.7,286046999.4,N
1593624115.5,286046997.2,N
1593624135.4,286046997.7,N
1593624155.2,286046998.3,N
1593624175.1,286046995.3,Y
1593624176.0,286047011.9,P
1593624195.8,286046998.3,N
1593624215.6,286047001.2,N
1593624235.5,286046998.6,N
1593624255.3,286047001.1,N
1593624275.2,286046998.2,N
1593624295.9,286046999.1,N
1593624315.7,286046998.7,N
1593624335.6,286046999.7,N
1593624355.4,286046999.7,N
1593624375.3,286046995.0,N
1593624395.1,286047004.1,N
1593624396.0,286047004.1,N
1593624415.8,286047005.6,N
1593624435.7,286047005.6,N
1593624455.5,286047005.7,N
1593624475.3,286047006.7,N
1593624495.2,286047006.3,N
1593624515.0,286047007.8,N
1593624515.9,286047007.8,N
1593624535.8,286047007.9,N
1593624555.6,286047008.1,N
1593624575.4,286047008.1,N
1593624595.3,286047007.7,N
1593624615.1,286047010.2,N
1593624635.9,286047007.9,N
1593624655.7,286047010.1,N
1593624675.5,286047007.7,N
1593624695.4,286047008.0,N
1593624715.2,286047013.9,Y
1593624735.0,286047005.3,P
1593624735.9,286047005.3,P
1593624755.8,286047001.2,N
1593624775.6,286047002.3,N
1593624795.5,286047001.6,N
1593624815.3,286047001.3,N
1593624835.1,286047003.2,N
1593624855.9,286046999.9,N
1593624875.7,286047001.9,N
1593624895.6,286047001.7,N
1593624915.4,286047003.9,N
1593624935.2,286047000.2,N
1593624955.1,286047002.0,N
1593624956.0,286047002.0,N
1593624975.8,286047002.4,N
1593624995.7,286046999.9,N
1593625015.5,286046999.9,N
1593625035.3,286046998.5,N
1593625055.2,286047001.2,N
1593625075.0,286046998.5,N
1593625075.9,286046998.5,N
1593625095.7,286047000.4,N
1593625115.6,286047000.4,N
1593625135.4,286047000.1,N
1593625155.3,286047000.9,N
1593625175.1,286047000.9,N
1593625176.0,286047000.9,N
1593625195.8,286047001.0,N
1593625215.7,286046998.2,N
1593625235.5,286047002.6,N
1593625255.4,286047002.0,N
1593625275.2,286047001.5,N
1593625295.0,286047001.6,N
1593625295.9,286047001.6,N
1593625315.8,286047002.5,N
1593625335.6,286047002.2,N
1593625355.4,286047002.4,N
1593625375.3,286047006.0,Y
1593625395.1,286047000.6,P
1593625415.9,286046999.2,P
1593625435.7,286046999.4,N
1593625455.5,286046998.2,N
1593625475.4,286046999.3,N
1593625495.2,286046999.2,N
1593625515.1,286046997.7,N
1593625516.0,286046997.7,N
1593625535.8,286046997.5,N
1593625555.6,286046996.1,Y
1593625575.5,286046996.4,P
1593625595.3,286046993.6,P
1593625615.1,286046994.6,N
1593625635.9,286046994.7,N
1593625655.7,286046994.4,N
1593625675.6,286046991.8,Y
1593625695.4,286046995.5,P
1593625715.2,286046997.5,P
1593625735.1,286046997.0,P
1593625736.0,286046997.0,Y
1593625755.8,286047000.1,P
1593625775.7,286047001.1,N
1593625795.5,286047000.4,N
1593625815.3,286047000.4,N
1593625835.2,286047001.4,N
1593625855.0,286047001.4,N
1593625855.9,286047001.4,N
1593625875.8,286047002.8,N
1593625895.6,286047001.8,N
1593625915.4,286047001.5,N
1593625935.3,286047004.3,N
1593625955.1,286047001.6,N
1593625975.8,286046999.9,N
1593625995.7,286047001.7,N
1593626015.5,286047004.4,N
1593626035.4,286047004.8,N
1593626055.2,286047003.5,N
1593626075.0,286047004.1,N
1593626075.9,286047004.1,N
1593626095.8,286047001.8,N
1593626115.6,286047002.1,N
1593626135.4,286047001.6,N
1593626155.3,286046999.7,N
1593626175.1,286047002.2,N
1593626195.9,286047004.3,N
1593626215.7,286047003.8,N
1593626235.5,286047004.4,N
1593626255.4,286047002.9,N
1593626275.2,286047003.5,N
1593626295.1,286047005.3,N
1593626296.0,286047005.3,Y
1593626315.8,286047002.2,P
1593626335.6,286047003.1,P
1593626355.5,286047001.5,P
1593626375.3,286047002.4,Y
1593626395.2,286046996.5,P
